{"data":{"norad_id":43208,"intl_designator":"2018-018B","name":"BEIDOU-3 M3 (C21)","alt_names":[],"object_type":"PAYLOAD","status":"ACTIVE","operator":null,"country":"PRC","launch_date":"2018-02-12","launch_site_code":"XICLF","launch_vehicle":null,"mission":null,"orbit_class":"UNKNOWN","rcs_meters":null,"size_class":null,"mass_kg":null,"dimensions":null,"purposes":["nav"],"wikipedia_slug":null,"has_3d_model":false,"image_url":null,"decayed_at":null,"tle_current":{"epoch":"2026-09-19T18:31:39.643104Z","epoch_age_seconds":77638,"freshness":"FRESH","line1":"1 43208U 18018B   26262.77198661 -.00000009  00000+0  00000+0 0  9996","line2":"2 43208  56.7379  60.0386 0005301 344.8593  15.1456  1.86231229 58508","mean_motion":1.86231229,"eccentricity":0.0005301,"inclination_deg":56.7379,"raan_deg":60.0386,"arg_perigee_deg":344.8593,"mean_anomaly_deg":15.1456,"bstar":0,"rev_number":5850,"period_min":773.23229177637,"perigee_km":21513.235628809,"apogee_km":21542.821745671,"semimajor_km":27906.16568724,"source":"CELESTRAK","updated_at":"2026-09-20T09:00:46.676307Z"}}}